Theta_e
297 297 297 298 299 299 300 300 302 304 304 305 304 304 303 303 304 295 290 292 290 285 285 282 284 283 286 285 280 284 283 284 283 278 273 276 275 277 273 275 275 278 278 279 278 277 275 286 284 282 285 285 284 285
296 296 296 296 297 298 298 299 299 301 302 303 303 303 303 303 303 302 291 293 294 286 286 287 286 287 286 286 285 284 282 280 284 276 274 272 270 269 270 270 280 274 279 274 278 277 284 284 285 285 286 286 285 284
296 296 296 295 296 296 297 297 298 298 300 300 300 301 302 303 302 300 291 289 289 285 284 279 280 285 288 289 289 279 279 286 284 285 278 274 270 277 268 271 275 278 281 279 279 282 282 283 284 285 285 286 286 284
296 296 296 295 295 295 296 296 296 297 298 299 298 300 301 300 300 296 289 290 289 285 282 279 287 283 287 288 287 288 287 289 289 283 278 274 269 280 274 279 278 279 280 279 280 282 282 283 283 281 279 279 280 280
295 295 296 295 295 294 295 295 295 295 296 297 298 297 298 298 296 291 289 289 288 286 278 283 282 284 283 284 285 286 285 285 285 282 281 280 278 279 275 277 280 281 281 279 279 284 283 284 280 278 278 278 276 276
295 295 295 296 295 294 295 295 294 294 294 295 297 296 298 296 295 293 285 287 285 288 272 274 283 275 270 275 284 285 284 284 285 284 283 284 284 281 276 270 280 282 279 282 284 282 281 277 276 275 275 274 274 273
295 295 295 295 294 294 295 294 294 294 294 294 295 296 298 297 289 285 279 284 288 284 282 271 279 280 268 278 283 284 284 283 283 283 282 281 283 283 280 277 281 277 280 273 271 274 275 273 274 270 270 268 269 268
294 295 295 295 295 293 294 294 294 293 293 293 295 295 296 294 290 283 282 287 285 281 279 269 276 278 271 277 279 281 280 281 280 273 280 278 278 279 276 281 278 277 271 269 269 269 269 269 269 269 269 268 266 267
295 295 295 295 295 294 294 294 294 293 291 294 295 294 287 279 274 273 285 283 280 277 267 262 267 267 270 267 271 277 280 276 272 270 271 270 270 274 277 275 273 271 271 269 268 269 269 268 269 268 265 265 265 266
295 295 296 296 296 293 294 294 294 292 289 290 285 274 267 270 284 283 273 267 267 265 264 265 258 265 268 265 274 265 277 275 265 266 265 263 265 270 272 268 268 269 269 267 266 269 270 269 269 269 268 268 268 268
295 295 296 296 295 293 294 294 293 289 285 272 266 268 274 282 273 264 263 264 260 262 258 257 260 264 266 265 264 266 263 262 262 264 263 257 264 269 263 262 261 264 264 262 262 263 262 263 265 267 268 268 267 267
295 295 296 296 295 292 294 293 291 279 271 272 271 272 268 265 264 264 259 258 259 264 258 261 261 262 260 264 260 261 259 259 260 255 258 258 267 266 260 259 258 257 259 259 258 259 259 260 259 260 263 263 264 264
295 295 295 296 296 292 294 293 291 284 281 271 266 266 266 263 263 262 260 262 260 258 256 256 259 263 260 263 257 258 257 260 255 255 259 264 265 261 261 253 253 250 251 253 253 253 252 253 252 253 256 256 257 258
295 295 295 296 295 292 294 291 285 279 272 269 266 266 266 261 260 261 261 260 259 258 258 260 256 260 258 259 257 258 256 255 254 254 261 264 265 261 256 252 255 253 252 252 252 250 250 250 251 248 249 250 253 253
295 295 295 294 295 292 288 283 279 271 269 267 266 266 263 260 253 251 249 253 255 256 258 260 259 267 259 261 260 258 259 256 259 264 263 265 261 255 254 252 257 251 251 253 250 251 250 248 248 253 251 246 248 248
294 294 286 293 291 286 284 276 267 266 265 266 262 264 256 260 257 250 249 254 254 259 257 259 256 257 260 260 258 260 261 262 268 265 263 259 259 258 257 255 258 255 254 253 252 251 249 249 249 249 247 250 248 247
294 287 291 290 288 283 280 267 266 264 266 264 265 254 258 258 261 256 253 255 257 257 258 256 260 265 259 256 257 264 264 269 267 266 264 262 262 262 260 257 255 256 255 253 251 251 252 249 247 247 249 250 248 247
288 287 293 291 279 274 263 263 263 260 264 264 264 259 253 253 253 251 252 253 257 256 258 260 260 258 258 258 263 269 268 264 262 264 263 262 261 259 260 260 258 258 257 254 254 253 250 252 252 254 253 253 250 245
289 288 292 289 279 269 267 264 265 263 263 260 260 259 254 252 252 253 251 252 251 253 254 254 254 257 261 266 269 265 263 262 265 264 262 261 261 261 259 258 260 257 257 255 254 255 256 256 257 255 255 255 255 252
295 295 290 286 281 273 269 266 260 263 262 260 258 258 257 251 250 247 248 249 252 251 252 254 259 263 266 267 266 266 265 262 262 263 265 263 258 258 259 259 259 257 254 253 254 255 254 254 255 256 257 258 257 256
285 284 282 278 273 272 271 266 261 260 258 258 256 257 254 253 251 248 248 251 252 255 256 260 261 260 260 259 259 259 260 260 263 263 263 263 259 258 257 255 253 253 253 254 255 255 256 257 257 257 257 258 259 259
282 283 275 277 274 270 267 261 262 260 260 258 258 257 255 255 255 250 251 251 255 259 260 260 258 257 258 260 259 256 257 256 255 257 257 257 258 256 254 254 253 253 252 253 254 255 256 256 257 258 258 258 258 256
282 279 272 272 272 268 263 258 259 259 261 258 256 259 259 252 250 253 252 255 258 260 259 257 255 253 256 254 252 253 253 254 255 255 256 256 255 253 253 252 253 254 253 253 253 253 255 257 256 257 256 256 255 254
281 275 273 272 271 264 258 256 258 259 260 259 258 258 257 254 249 249 253 256 259 255 255 255 252 254 252 252 252 252 252 253 252 253 253 254 255 254 252 252 251 253 254 254 255 255 255 255 256 255 255 255 255 256
275 273 270 267 263 258 256 254 255 256 259 261 261 261 255 249 251 249 253 259 256 256 255 251 251 251 253 254 253 255 253 254 254 255 253 251 251 253 254 253 252 254 254 255 255 254 255 254 254 254 254 254 254 254
273 273 268 266 258 259 258 256 256 259 261 260 262 255 255 253 251 256 256 256 256 256 254 256 255 251 254 258 259 258 257 253 254 255 252 249 251 253 253 254 253 253 248 248 250 251 252 253 252 252 252 253 255 254
271 270 265 261 261 259 256 257 259 261 260 262 259 256 258 259 257 259 256 255 257 253 252 254 256 259 260 258 256 254 253 254 254 255 252 249 248 247 250 252 251 250 247 247 248 249 251 251 251 251 250 250 250 250
269 263 263 260 257 260 259 258 260 261 263 263 260 258 260 262 264 260 260 258 255 254 254 255 258 260 259 259 257 255 253 251 253 252 251 251 248 246 246 245 247 256 248 247 248 248 248 248 247 247 247 246 246 245
265 262 264 260 260 262 263 263 263 266 266 264 264 264 264 266 261 260 258 259 258 257 258 260 259 257 256 256 255 253 253 254 255 254 253 252 250 251 246 245 244 244 244 244 253 252 247 246 245 244 244 244 244 241
261 266 262 261 262 262 263 265 267 262 263 265 265 264 264 262 259 260 260 260 260 259 260 259 260 258 257 256 255 254 251 250 251 254 254 252 253 246 245 244 244 242 242 243 247 249 256 249 249 245 245 245 244 244
264 265 264 264 264 258 258 258 259 260 260 260 259 264 263 260 258 257 255 254 256 257 257 257 256 255 256 256 255 254 255 250 248 248 247 246 246 244 244 244 243 240 240 243 245 245 245 245 243 243 244 245 244 245
262 264 264 261 257 255 257 260 260 260 259 260 258 258 259 260 261 257 253 253 256 256 255 254 254 254 252 250 250 249 252 250 250 249 249 248 244 243 243 243 241 241 243 245 244 245 244 244 244 244 244 244 244 244
260 261 260 257 256 256 256 259 259 257 258 258 258 258 258 260 260 256 253 253 252 251 251 250 250 249 249 249 249 249 249 248 249 256 254 253 250 248 242 241 241 243 245 245 245 245 246 246 245 244 244 244 244 244
Wind_Speed
19 19 19 19 19 18 17 16 15 13 11 9 8 8 8 6 6 3 1 3 2 1 1 2 1 3 3 3 3 3 3 2 2 2 3 3 3 6 2 4 8 11 7 10 7 10 14 8 3 11 6 2 2 1
18 18 18 18 18 17 17 17 15 13 11 8 6 6 6 7 5 1 0 1 1 3 1 2 0 1 3 1 1 1 3 2 3 3 1 2 1 2 3 6 2 3 9 6 9 8 7 6 7 5 5 6 5 4
16 16 17 17 17 18 17 16 15 13 12 10 9 6 6 8 5 4 2 1 2 1 0 3 0 2 5 4 3 2 3 4 2 1 4 3 3 4 4 7 4 4 3 5 1 10 8 8 8 7 5 7 6 4
14 14 15 16 16 17 17 17 15 14 13 12 11 9 5 4 5 4 2 0 2 2 0 3 2 3 3 4 4 2 2 2 2 2 2 2 2 2 3 6 7 7 6 5 14 10 8 11 9 4 3 4 5 6
13 13 13 13 14 15 16 15 15 14 13 12 9 9 5 7 8 7 3 3 2 2 3 2 2 2 3 4 3 2 1 1 1 1 1 3 2 1 3 2 16 5 13 9 17 14 9 11 2 1 4 3 3 4
13 13 14 14 14 13 16 15 16 14 13 13 10 6 7 3 3 2 2 1 2 2 4 2 1 3 6 5 4 2 2 2 1 2 2 3 4 3 4 6 7 10 7 10 20 6 6 1 1 2 3 2 2 5
14 14 14 14 14 13 16 16 17 16 15 13 9 3 1 5 3 2 4 1 2 1 2 2 2 1 1 2 1 0 3 2 3 2 4 3 2 3 4 16 8 7 9 4 2 3 6 3 4 2 1 2 2 2
14 14 15 15 14 13 15 15 17 17 17 12 6 2 8 11 8 0 3 2 3 3 1 3 1 1 2 2 3 0 1 1 2 3 2 1 1 3 8 15 5 5 3 1 2 2 2 1 2 3 2 2 4 5
14 15 15 15 15 15 15 16 16 17 13 7 4 3 4 4 1 4 1 4 2 4 3 3 5 5 4 1 1 0 0 2 1 2 0 1 3 9 11 6 4 2 2 2 3 1 2 4 6 3 2 4 5 4
13 14 15 15 12 14 16 18 19 20 3 2 5 5 4 3 3 3 6 5 6 5 5 3 1 1 2 2 2 3 2 2 2 3 1 2 8 8 8 5 4 5 5 5 2 4 2 4 4 4 6 5 4 3
14 15 14 14 10 11 16 17 19 16 7 4 2 3 3 3 4 5 1 3 3 4 1 3 3 3 3 3 4 1 2 1 1 5 4 4 7 7 1 4 3 2 2 3 3 2 2 1 3 4 3 3 2 2
13 14 14 13 8 9 14 14 13 5 3 4 3 1 3 5 4 4 2 4 2 6 2 4 2 2 2 3 4 3 3 4 6 0 4 5 8 5 5 5 4 3 5 4 2 3 1 0 2 3 3 2 2 2
14 13 14 14 9 7 11 11 9 4 4 3 5 4 5 4 4 6 4 6 2 2 3 2 0 1 3 3 3 4 4 6 2 3 7 9 5 4 5 3 2 1 2 3 2 1 0 2 5 2 2 1 3 4
15 14 14 15 8 7 9 8 5 2 4 3 4 4 5 4 6 6 6 5 3 3 3 3 2 3 2 4 2 4 5 4 3 2 9 5 6 5 5 3 5 5 6 5 4 2 2 1 3 3 4 3 3 4
15 15 15 14 9 5 4 3 3 2 4 2 5 5 7 2 1 2 2 1 3 2 3 3 3 2 2 2 1 3 3 5 8 8 6 5 4 4 3 4 6 4 5 5 4 4 4 3 2 4 2 2 1 2
13 15 6 7 4 4 2 3 3 3 3 4 1 1 1 2 3 2 2 2 2 2 2 3 3 4 4 4 3 8 5 8 6 5 5 2 3 4 4 5 5 3 4 4 5 4 4 4 4 4 3 3 2 2
10 4 6 7 7 7 4 3 4 3 4 2 4 1 2 2 3 3 4 3 2 4 3 4 4 10 2 2 4 6 8 6 5 4 3 4 5 5 5 4 4 5 6 5 4 4 3 2 2 3 3 4 4 4
5 4 9 8 7 4 4 4 4 3 5 2 2 2 1 1 3 1 2 1 4 3 3 6 3 3 7 7 6 6 4 4 3 4 3 2 3 3 4 6 5 6 6 5 5 4 4 5 5 5 4 3 3 3
6 6 11 9 6 5 2 3 3 3 4 0 1 1 2 0 1 2 1 2 2 1 3 3 2 6 7 6 6 3 3 3 3 3 3 3 4 5 4 2 4 5 6 6 6 5 5 7 5 3 3 4 4 3
16 14 15 10 5 3 2 3 1 2 3 1 1 2 1 1 1 1 1 0 2 2 1 5 9 6 5 3 3 3 3 2 2 3 4 3 2 3 4 4 3 2 2 2 1 3 1 2 3 4 4 5 5 5
11 8 10 5 3 3 1 3 2 3 2 2 0 1 1 1 1 1 2 2 2 5 6 8 6 3 2 0 0 1 1 3 4 4 3 3 2 1 1 0 2 2 2 2 3 3 5 6 3 4 5 6 6 5
3 13 4 1 3 2 0 0 2 2 2 1 1 2 1 2 2 2 2 1 7 7 7 4 3 2 0 2 3 3 3 2 1 2 1 3 1 1 2 4 4 4 4 5 5 5 5 4 3 3 4 5 4 3
13 5 4 3 3 5 4 2 2 3 3 3 2 2 3 1 2 1 4 6 7 6 4 3 3 2 3 3 2 4 4 4 3 3 3 3 2 2 1 2 3 3 2 4 3 3 3 3 3 3 3 3 3 3
7 7 8 7 9 5 3 3 1 2 2 3 4 4 3 3 2 2 6 5 5 1 2 4 2 2 3 3 2 3 2 3 0 2 1 2 0 3 2 3 2 2 3 2 1 1 1 2 2 2 2 2 3 3
8 8 7 8 2 6 5 5 5 3 5 5 5 4 3 3 2 4 6 6 3 2 2 1 2 2 3 2 2 3 2 3 3 2 2 2 2 2 2 1 1 1 1 1 1 1 2 1 1 2 2 2 3 4
10 12 16 13 5 9 9 9 10 9 5 5 5 3 2 3 1 9 6 4 4 3 3 4 4 3 2 4 3 1 1 2 2 2 2 1 1 3 1 1 1 3 3 1 1 1 2 1 1 2 3 4 5 4
10 11 4 2 6 5 3 1 2 5 8 8 6 7 5 5 8 7 3 1 1 2 2 2 3 3 3 3 2 1 1 2 2 2 2 2 2 1 3 3 2 3 0 2 2 2 1 1 1 2 3 2 2 3
6 9 12 9 3 3 7 6 7 10 6 6 8 8 9 9 6 3 2 1 2 2 2 1 2 2 2 1 3 5 3 2 4 4 3 3 2 2 2 1 1 3 2 1 2 2 3 2 1 1 1 1 3 2
5 5 8 6 4 5 8 8 10 6 7 7 9 6 6 2 1 2 1 1 2 2 1 2 2 2 3 3 3 2 2 4 5 3 2 2 2 3 0 1 2 3 2 2 3 4 5 4 3 3 3 2 2 2
6 6 6 6 8 9 6 3 4 3 2 3 2 3 2 2 2 2 2 2 1 1 1 1 1 3 3 3 2 2 2 2 2 3 4 4 5 2 3 1 1 2 2 1 2 3 7 5 5 4 4 4 3 3
6 4 4 3 3 2 2 3 3 3 2 2 2 1 3 3 3 2 3 2 2 1 1 1 1 2 3 3 3 3 1 2 3 3 2 3 3 3 3 2 2 1 1 2 3 3 3 3 2 2 4 4 5 4
1 3 5 5 3 1 1 2 2 3 2 2 2 2 2 2 3 2 3 4 1 1 2 1 1 1 2 1 1 1 1 4 4 3 5 3 2 2 2 3 3 1 2 2 3 3 3 3 2 2 2 4 4 4
2 3 4 5 4 4 2 4 3 3 2 2 2 1 1 1 3 2 1 2 2 1 2 2 1 2 2 2 3 3 4 3 5 6 6 6 6 6 3 3 2 2 3 3 3 3 3 3 1 2 3 3 5 5
Wind_Direction
18 17 16 14 15 16 16 16 17 23 32 51 53 35 22 11 8 80 221 7 102 224 252 152 191 125 182 175 166 208 72 333 72 95 120 240 150 213 154 213 181 182 187 218 219 241 247 222 95 197 246 259 217 205
15 15 14 12 10 9 10 13 10 7 10 19 20 14 357 337 336 28 350 352 20 127 218 102 154 283 16 161 299 307 171 170 165 100 4 78 269 24 138 255 135 242 193 179 178 213 231 237 228 230 197 224 242 200
14 11 9 10 7 4 5 6 8 2 359 360 353 353 15 22 32 126 130 350 54 42 263 83 166 323 36 6 309 139 333 356 43 124 166 201 209 120 180 246 228 279 158 215 30 245 243 261 256 251 223 233 273 255
8 10 9 4 3 1 359 359 359 358 351 342 351 355 40 45 64 104 103 220 96 103 328 293 358 47 356 7 6 16 26 358 352 37 93 152 161 130 244 255 231 193 158 217 254 268 291 267 256 239 264 283 295 305
4 4 5 6 3 356 357 354 353 348 346 341 335 359 27 33 78 77 74 41 47 99 206 323 333 88 11 342 311 140 231 219 213 329 234 230 246 38 244 262 254 186 245 236 258 264 230 260 151 135 277 288 319 296
3 3 360 3 3 355 354 351 350 344 339 332 315 321 337 160 90 12 3 189 160 156 101 178 104 332 338 338 334 255 154 187 178 193 205 233 244 145 257 257 240 212 215 225 258 257 219 311 237 144 253 273 300 297
357 359 359 2 5 351 352 350 348 344 336 326 305 279 208 142 97 183 184 206 166 111 167 10 239 103 120 304 306 33 161 189 197 210 228 227 227 207 247 257 254 231 241 228 171 91 293 167 270 42 1 311 332 294
343 348 350 352 360 351 348 348 344 342 339 328 295 197 105 96 110 245 333 89 110 112 35 151 233 226 2 179 184 279 182 167 212 228 319 263 272 198 255 248 267 255 122 122 187 42 89 331 334 299 331 328 297 280
324 331 333 340 344 350 341 348 345 339 336 335 237 134 45 43 87 237 183 54 48 130 164 111 154 228 357 264 203 173 71 226 284 213 252 50 256 228 237 231 264 237 184 158 128 176 278 271 289 279 253 282 265 273
316 320 324 329 341 348 339 348 348 346 340 73 58 61 337 267 287 45 7 28 13 333 30 177 14 198 84 358 108 51 186 253 224 254 337 149 255 279 267 218 179 173 159 121 23 302 246 265 263 278 254 247 252 270
305 311 320 331 346 343 343 349 353 350 36 42 78 183 232 326 57 34 352 95 315 349 12 228 161 155 311 118 193 200 185 262 75 256 136 279 271 249 219 149 175 156 165 201 134 112 66 260 288 303 287 260 263 196
298 305 308 315 323 327 336 353 6 38 155 196 196 38 26 47 37 77 252 328 105 232 308 131 222 162 287 79 90 322 146 46 241 235 69 269 251 242 187 211 221 175 153 152 115 133 118 252 289 279 261 207 183 155
285 292 300 306 304 307 321 353 360 329 84 37 48 44 64 304 34 135 246 297 306 178 202 157 129 135 10 39 56 75 90 227 25 52 231 234 255 260 217 186 220 291 95 120 147 154 354 319 343 9 272 314 127 114
278 282 288 294 298 281 322 352 9 86 81 96 110 287 156 276 249 189 186 193 237 119 134 123 83 138 195 66 151 106 242 66 17 318 239 253 241 235 175 203 132 215 195 188 223 236 239 245 278 303 325 290 151 173
274 279 282 284 270 285 21 62 52 71 108 171 94 234 220 234 54 195 211 29 265 167 99 64 36 103 1 91 130 94 16 263 207 233 233 242 250 181 202 198 202 216 195 202 192 202 226 246 276 298 291 297 210 158
272 290 265 182 176 104 105 88 46 77 49 118 130 316 275 44 294 322 210 230 227 124 57 52 114 62 250 148 109 219 149 226 246 222 240 289 258 224 212 205 211 197 191 194 194 199 198 197 206 244 305 294 292 208
257 223 201 185 126 94 112 73 47 44 182 181 242 103 140 146 204 199 157 212 185 85 183 121 141 216 85 64 249 194 211 221 223 257 240 196 214 240 202 188 186 191 192 186 187 201 214 166 137 99 268 268 235 223
221 188 198 157 138 95 22 46 80 88 256 217 217 204 169 146 145 256 230 275 117 175 117 205 135 160 207 196 234 231 239 258 218 240 231 225 228 229 200 183 181 193 196 183 183 171 163 179 208 229 226 228 226 261
195 175 172 156 140 96 73 331 83 246 242 4 60 90 85 116 350 46 48 349 108 142 92 57 161 213 227 218 228 235 237 201 243 272 255 237 212 189 182 173 165 176 187 178 182 208 202 206 214 187 209 185 218 193
224 214 157 129 129 99 320 285 64 131 245 205 112 175 120 169 171 65 48 72 113 94 74 207 222 215 203 235 201 206 200 166 116 332 296 275 205 152 185 184 205 164 146 143 170 185 204 241 227 208 215 214 213 223
115 144 123 97 57 67 164 170 277 195 137 195 110 171 154 103 102 156 209 185 72 217 238 228 237 248 251 248 172 138 202 163 200 186 221 305 355 150 143 182 144 111 156 185 202 229 221 237 229 192 206 226 227 226
123 136 105 82 120 143 32 256 165 135 141 100 185 172 197 218 206 231 154 130 233 232 212 207 225 194 307 264 251 206 216 165 186 145 116 134 107 249 229 194 145 206 207 206 200 215 218 215 204 203 212 231 218 221
116 113 89 121 163 190 221 50 154 179 202 182 145 231 214 215 192 82 251 228 256 234 217 216 215 194 220 306 330 281 216 184 229 229 233 218 211 204 216 218 182 177 233 270 212 209 226 223 203 201 205 200 191 212
107 152 162 200 199 175 95 188 171 134 132 200 193 229 208 175 140 102 252 250 242 265 204 223 152 0 349 11 301 280 293 152 168 307 281 129 6 286 215 229 217 230 211 197 152 267 294 266 220 189 190 201 218 229
143 206 180 204 152 123 171 155 171 179 227 171 193 219 179 122 164 225 235 265 261 245 238 163 124 158 173 262 284 274 233 144 158 174 309 144 148 353 348 342 359 4 2 75 314 254 274 296 273 236 223 214 239 249
196 197 187 188 173 174 178 157 192 186 162 167 203 100 151 123 165 240 227 225 230 217 197 186 174 151 236 203 212 221 231 205 137 100 288 59 128 143 208 214 348 316 359 94 106 24 354 316 273 272 284 285 280 276
206 201 167 55 134 126 90 85 123 146 173 180 159 158 163 208 237 246 260 241 208 242 218 216 164 177 168 154 147 94 61 63 98 134 126 91 71 106 148 164 200 231 318 49 82 115 129 13 346 321 307 323 296 278
199 162 167 176 175 178 147 168 170 187 174 144 129 178 191 204 227 216 165 147 145 131 95 42 46 75 96 96 110 117 85 60 79 76 66 58 41 37 55 59 37 76 53 243 162 117 118 136 130 354 0 313 295 310
175 160 121 149 140 185 197 176 190 190 137 160 170 183 210 189 75 92 102 109 134 135 127 176 140 90 83 77 69 60 118 163 141 133 167 247 325 282 329 6 26 28 14 329 268 170 175 152 154 164 188 209 259 288
181 169 113 152 165 196 196 187 145 108 86 120 102 98 109 96 80 15 27 34 45 295 328 330 129 168 163 153 163 247 240 187 193 160 160 207 217 175 155 149 50 12 328 76 85 12 53 46 33 29 26 21 18 9
132 132 107 131 155 54 74 95 66 75 76 92 29 94 102 120 107 45 32 341 303 297 223 197 168 172 157 167 174 161 229 219 170 132 106 101 118 142 157 133 103 109 233 127 110 103 95 57 52 42 36 21 353 356
120 150 128 127 126 114 106 97 111 96 111 128 122 91 127 149 146 108 8 333 2 56 40 351 144 107 9 344 2 357 290 125 140 159 138 140 149 152 124 98 96 134 129 108 104 97 95 113 92 41 352 333 323 319
86 67 90 111 120 156 157 118 112 97 91 123 103 85 56 51 124 60 131 53 40 338 312 325 316 306 333 80 115 103 88 119 151 132 131 129 131 125 108 105 140 162 136 114 91 83 77 78 23 318 310 305 302 297